TimeCST,TemperatureF,Dew PointF,Humidity,Sea Level PressureIn,VisibilityMPH,Wind Direction,Wind SpeedMPH,Gust SpeedMPH,PrecipitationIn,Events,Conditions,WindDirDegrees,DateUTC
12:15 AM,-9.4,-16.6,71,30.48,10.0,West,6.9,-,N/A,,Clear,280,2014-02-06 06:15:00
12:35 AM,-9.4,-16.6,71,30.47,10.0,West,8.1,-,N/A,,Clear,280,2014-02-06 06:35:00
12:55 AM,-9.4,-16.6,71,30.47,10.0,West,9.2,-,N/A,,Clear,280,2014-02-06 06:55:00
1:15 AM,-11.2,-16.6,77,30.46,7.0,West,8.1,-,N/A,,Clear,280,2014-02-06 07:15:00
1:35 AM,-11.2,-16.6,77,30.46,7.0,West,6.9,-,N/A,,Clear,280,2014-02-06 07:35:00
1:55 AM,-11.2,-16.6,77,30.46,7.0,West,6.9,-,N/A,,Clear,280,2014-02-06 07:55:00
2:15 AM,-11.2,-18.4,70,30.46,7.0,West,5.8,-,N/A,,Clear,280,2014-02-06 08:15:00
2:36 AM,-11.2,-16.6,77,30.45,10.0,West,9.2,-,N/A,,Clear,280,2014-02-06 08:36:00
2:55 AM,-11.2,-16.6,77,30.44,10.0,West,8.1,-,N/A,,Clear,280,2014-02-06 08:55:00
3:16 AM,-11.2,-16.6,77,30.44,10.0,West,9.2,-,N/A,,Clear,280,2014-02-06 09:16:00
3:35 AM,-11.2,-16.6,77,30.43,10.0,West,11.5,-,N/A,,Clear,280,2014-02-06 09:35:00
3:56 AM,-11.2,-16.6,77,30.43,10.0,West,9.2,-,N/A,,Clear,280,2014-02-06 09:56:00
4:15 AM,-11.2,-18.4,70,30.43,10.0,West,9.2,-,N/A,,Clear,280,2014-02-06 10:15:00
4:35 AM,-11.2,-18.4,70,30.43,10.0,West,6.9,-,N/A,,Clear,270,2014-02-06 10:35:00
4:56 AM,-11.2,-18.4,70,30.43,10.0,West,6.9,-,N/A,,Clear,280,2014-02-06 10:56:00
5:15 AM,-11.2,-18.4,70,30.42,10.0,West,11.5,-,N/A,,Clear,280,2014-02-06 11:15:00
5:36 AM,-11.2,-18.4,70,30.42,10.0,West,9.2,-,N/A,,Clear,280,2014-02-06 11:36:00
5:55 AM,-9.4,-16.6,71,30.41,10.0,West,10.4,-,N/A,,Clear,280,2014-02-06 11:55:00
6:15 AM,-9.4,-16.6,71,30.40,10.0,West,10.4,-,N/A,,Clear,280,2014-02-06 12:15:00
6:35 AM,-9.4,-16.6,71,30.40,10.0,West,9.2,-,N/A,,Clear,280,2014-02-06 12:35:00
6:55 AM,-11.2,-16.6,77,30.40,10.0,West,11.5,-,N/A,,Clear,280,2014-02-06 12:55:00
7:15 AM,-11.2,-18.4,70,30.39,10.0,West,8.1,-,N/A,,Clear,270,2014-02-06 13:15:00
7:35 AM,-11.2,-18.4,70,30.39,10.0,West,8.1,-,N/A,,Clear,270,2014-02-06 13:35:00
7:55 AM,-9.4,-16.6,71,30.39,10.0,West,9.2,-,N/A,,Clear,270,2014-02-06 13:55:00
8:15 AM,-9.4,-16.6,71,30.39,10.0,West,9.2,-,N/A,,Clear,260,2014-02-06 14:15:00
8:36 AM,-9.4,-16.6,71,30.39,10.0,West,13.8,-,N/A,,Clear,270,2014-02-06 14:36:00
8:55 AM,-7.6,-14.8,71,30.39,10.0,West,12.7,-,N/A,,Clear,270,2014-02-06 14:55:00
9:15 AM,-7.6,-14.8,71,30.38,10.0,West,15.0,-,N/A,,Clear,260,2014-02-06 15:15:00
9:36 AM,-5.8,-14.8,65,30.38,10.0,West,13.8,-,N/A,,Clear,270,2014-02-06 15:36:00
9:55 AM,-5.8,-13.0,71,30.37,10.0,West,16.1,21.9,N/A,,Clear,270,2014-02-06 15:55:00
10:16 AM,-4.0,-13.0,65,30.36,10.0,West,13.8,-,N/A,,Clear,270,2014-02-06 16:16:00
10:35 AM,-2.2,-11.2,66,30.37,10.0,West,15.0,19.6,N/A,,Clear,270,2014-02-06 16:35:00
10:55 AM,-2.2,-11.2,66,30.37,10.0,West,15.0,21.9,N/A,,Clear,270,2014-02-06 16:55:00
11:16 AM,-2.2,-11.2,66,30.36,10.0,West,15.0,-,N/A,,Clear,270,2014-02-06 17:16:00
11:35 AM,-0.4,-9.4,66,30.35,10.0,West,19.6,-,N/A,,Clear,270,2014-02-06 17:35:00
11:55 AM,-0.4,-9.4,66,30.34,10.0,West,18.4,21.9,N/A,,Clear,270,2014-02-06 17:55:00
12:16 PM,1.4,-9.4,61,30.34,10.0,West,18.4,-,N/A,,Clear,270,2014-02-06 18:16:00
12:35 PM,1.4,-7.6,66,30.33,10.0,West,15.0,-,N/A,,Clear,260,2014-02-06 18:35:00
12:55 PM,1.4,-7.6,66,30.33,10.0,West,13.8,21.9,N/A,,Clear,270,2014-02-06 18:55:00
1:15 PM,3.2,-7.6,61,30.32,10.0,West,17.3,-,N/A,,Clear,270,2014-02-06 19:15:00
1:35 PM,3.2,-7.6,61,30.31,10.0,West,16.1,26.5,N/A,,Clear,270,2014-02-06 19:35:00
1:56 PM,3.2,-7.6,61,30.30,10.0,West,17.3,21.9,N/A,,Scattered Clouds,270,2014-02-06 19:56:00
2:15 PM,3.2,-5.8,66,30.29,7.0,West,19.6,25.3,N/A,,Mostly Cloudy,270,2014-02-06 20:15:00
2:35 PM,3.2,-7.6,61,30.28,10.0,West,19.6,24.2,N/A,,Mostly Cloudy,260,2014-02-06 20:35:00
2:56 PM,3.2,-5.8,66,30.28,10.0,West,18.4,23.0,N/A,,Overcast,270,2014-02-06 20:56:00
3:15 PM,3.2,-5.8,66,30.28,10.0,West,16.1,24.2,N/A,,Mostly Cloudy,270,2014-02-06 21:15:00
3:35 PM,3.2,-5.8,66,30.27,10.0,West,15.0,20.7,N/A,,Scattered Clouds,270,2014-02-06 21:35:00
3:56 PM,3.2,-5.8,66,30.27,10.0,West,15.0,-,N/A,,Clear,260,2014-02-06 21:56:00
4:15 PM,3.2,-5.8,66,30.26,10.0,West,17.3,-,N/A,,Clear,260,2014-02-06 22:15:00
4:35 PM,3.2,-5.8,66,30.26,10.0,West,16.1,-,N/A,,Clear,260,2014-02-06 22:35:00
4:56 PM,3.2,-5.8,66,30.26,10.0,West,13.8,-,N/A,,Clear,270,2014-02-06 22:56:00
5:15 PM,1.4,-5.8,72,30.26,10.0,West,11.5,-,N/A,,Mostly Cloudy,270,2014-02-06 23:15:00
5:35 PM,1.4,-5.8,72,30.25,10.0,West,10.4,-,N/A,,Overcast,260,2014-02-06 23:35:00
5:56 PM,1.4,-5.8,72,30.25,10.0,West,12.7,-,N/A,,Mostly Cloudy,260,2014-02-06 23:56:00
6:15 PM,1.4,-5.8,72,30.25,10.0,West,12.7,-,N/A,,Mostly Cloudy,260,2014-02-07 00:15:00
6:35 PM,1.4,-5.8,72,30.25,10.0,West,11.5,-,N/A,,Overcast,260,2014-02-07 00:35:00
6:56 PM,1.4,-5.8,72,30.24,10.0,WSW,11.5,-,N/A,,Overcast,250,2014-02-07 00:56:00
7:15 PM,1.4,-5.8,72,30.24,10.0,West,15.0,-,N/A,,Overcast,260,2014-02-07 01:15:00
7:35 PM,1.4,-5.8,72,30.23,10.0,West,11.5,-,N/A,,Overcast,260,2014-02-07 01:35:00
7:56 PM,1.4,-5.8,72,30.23,10.0,WSW,12.7,-,N/A,,Overcast,240,2014-02-07 01:56:00
8:15 PM,1.4,-5.8,72,30.22,10.0,WSW,12.7,-,N/A,,Overcast,240,2014-02-07 02:15:00
8:35 PM,1.4,-5.8,72,30.22,10.0,WSW,12.7,-,N/A,,Mostly Cloudy,250,2014-02-07 02:35:00
8:56 PM,-0.4,-7.6,72,30.22,10.0,WSW,11.5,-,N/A,,Scattered Clouds,250,2014-02-07 02:56:00
9:15 PM,-0.4,-7.6,72,30.21,10.0,West,10.4,-,N/A,,Clear,260,2014-02-07 03:15:00
9:35 PM,-0.4,-7.6,72,30.21,10.0,WSW,10.4,-,N/A,,Clear,250,2014-02-07 03:35:00
9:55 PM,-2.2,-9.4,71,30.21,10.0,WSW,10.4,-,N/A,,Clear,250,2014-02-07 03:55:00
10:15 PM,-2.2,-9.4,71,30.21,10.0,WSW,10.4,-,N/A,,Clear,240,2014-02-07 04:15:00
10:36 PM,-2.2,-9.4,71,30.20,10.0,WSW,10.4,-,N/A,,Clear,240,2014-02-07 04:36:00
10:55 PM,-2.2,-9.4,71,30.20,10.0,WSW,11.5,-,N/A,,Clear,240,2014-02-07 04:55:00
11:15 PM,-2.2,-9.4,71,30.20,10.0,WSW,13.8,-,N/A,,Clear,250,2014-02-07 05:15:00
11:36 PM,-2.2,-9.4,71,30.19,10.0,WSW,13.8,-,N/A,,Clear,250,2014-02-07 05:36:00
11:55 PM,-2.2,-9.4,71,30.19,10.0,WSW,12.7,-,N/A,,Clear,250,2014-02-07 05:55:00